Location: Clanezzo
(45.7500°N, 9.6000°E)
Time: 04:28:59
(UTC+00:00)

Cosmos 1680 Rocket - Pass Details

Date: 12 May 2021
Orbit: 759 x 781 km, 74.1° (Epoch: 18 June)

Event Time Altitude Azimuth Distance (km) Brightness Sun altitude
Rises 21:30:09 0° 337° (NNW) 3,277 8.3 -21.4°
Reaches altitude 10° 21:32:33 10° 336° (NNW) 2,345 7.2 -21.6°
Maximum altitude 21:37:52 79° 252° (WSW) 801 3.5 -22.0°
Enters shadow 21:39:16 50° 175° (S) 987 3.6 -22.1°
